Chattanooga, TN

6:25 AM EDT on September 26, 2017 (GMT -0400)
Lovell

Weather History for KCHA - October, 2014

Change the Weather History Date:

Friday, October 10, 2014

  Actual Average Record
Temperature  
Mean Temperature 75 °F 63 °F  
Max Temperature 85 °F 75 °F 88 °F (1939)
Min Temperature 65 °F 52 °F 33 °F (2000)
Degree Days  
Heating Degree Days 0 4  
Month to date heating degree days 23 27  
Since 1 July heating degree days 23 42  
Cooling Degree Days 10 2  
Month to date cooling degree days 53 27  
Year to date cooling degree days 1879 1716  
Growing Degree Days 24 (Base 50)    
Moisture  
Dew Point 65 °F    
Average Humidity 72    
Maximum Humidity 97    
Minimum Humidity 47    
Precipitation  
Precipitation 0.43 in 0.10 in 1.85 in (1905)
Month to date precipitation 2.81 1.09  
Year to date precipitation 33.94 40.39  
Snow  
Snow 0.00 in 0.00 in - ()
Month to date snowfall 0.0 0.0  
Since 1 July snowfall 0.0 0.0  
Since 1 September snowfall 0.0 0.0  
Snow Depth 0.00 in    
Sea Level Pressure  
Sea Level Pressure 30.01 in    
Wind  
Wind Speed 4 mph (SSW)    
Max Wind Speed 16 mph    
Max Gust Speed 22 mph    
Visibility 8 miles    
Events Fog , Rain , Thunderstorm    
T = Trace of Precipitation, MM = Missing Value Source: NWS Daily Summary

Daily Weather History Graph

Daily Weather History Graph

Search for Another Location

Airport or City:

Trip Planner

Search our weather history database for the weather conditions in past years. The results will help you decide how hot, cold, wet, or windy it might be!

Date:

Astronomy

Oct. 10, 2014 Rise Set
Actual Time 7:42 AM EDT 7:12 PM EDT
Civil Twilight 7:17 AM EDT 7:37 PM EDT
Nautical Twilight 6:47 AM EDT 8:07 PM EDT
Astronomical Twilight 6:18 AM EDT 8:36 PM EDT
Moon 8:57 PM EDT (10/10) 9:57 AM EDT (10/10)
Length of Visible Light 12h 20m
Length of Day
11h 29m
Waning Gibbous, 94% of the Moon is Illuminated
Oct 10
Waning Gibbous
Oct 15
Last Quarter
Oct 23
New
Oct 30
First Quarter
Nov 6
Full

Hourly Weather History & Observations

Time (EDT) Temp. Heat Index Dew Point Humidity Pressure Visibility Wind Dir Wind Speed Gust Speed Precip Events Conditions
12:53 AM 66.9 °F - 64.9 °F 93% 30.05 in 7.0 mi Calm Calm - N/A   Clear
1:53 AM 66.9 °F - 64.0 °F 90% 30.04 in 6.0 mi Calm Calm - N/A   Clear
2:53 AM 66.0 °F - 64.0 °F 93% 30.04 in 6.0 mi Calm Calm - N/A   Mostly Cloudy
3:53 AM 66.0 °F - 63.0 °F 90% 30.03 in 5.0 mi Calm Calm - N/A   Partly Cloudy
4:53 AM 66.2 °F - 62.6 °F 88% 30.04 in 7.0 mi Calm Calm - N/A   Overcast
5:53 AM 66.2 °F - 62.6 °F 88% 30.05 in 10.0 mi Calm Calm - N/A   Mostly Cloudy
6:53 AM 66.0 °F - 63.0 °F 90% 30.03 in 10.0 mi Calm Calm - N/A   Mostly Cloudy
7:53 AM 66.9 °F - 64.0 °F 90% 30.04 in 9.0 mi SW 3.5 mph - N/A   Mostly Cloudy
8:53 AM 68.0 °F - 64.0 °F 87% 30.05 in 9.0 mi South 3.5 mph - N/A   Mostly Cloudy
9:53 AM 72.0 °F - 64.9 °F 78% 30.06 in 9.0 mi Variable 4.6 mph - N/A   Mostly Cloudy
10:53 AM 75.0 °F - 66.0 °F 73% 30.05 in 10.0 mi South 5.8 mph - N/A   Mostly Cloudy
11:53 AM 80.1 °F 82.3 °F 66.9 °F 64% 30.02 in 10.0 mi South 9.2 mph - N/A   Mostly Cloudy
12:53 PM 82.9 °F 83.7 °F 62.1 °F 49% 30.00 in 10.0 mi SSW 10.4 mph - N/A   Mostly Cloudy
1:53 PM 82.9 °F 84.0 °F 63.0 °F 51% 29.97 in 10.0 mi SSE 12.7 mph - N/A   Mostly Cloudy
2:53 PM 82.9 °F 83.2 °F 60.1 °F 46% 29.96 in 10.0 mi South 13.8 mph 21.9 mph N/A   Mostly Cloudy
3:53 PM 80.1 °F 81.1 °F 61.0 °F 52% 29.96 in 10.0 mi South 12.7 mph 19.6 mph 0.00 in   Mostly Cloudy
3:59 PM 80.1 °F 81.2 °F 62.1 °F 54% 29.99 in 10.0 mi South 11.5 mph 19.6 mph N/A Thunderstorm Thunderstorm
4:21 PM 79.0 °F - 62.1 °F 56% 29.99 in 10.0 mi South 9.2 mph - N/A   Mostly Cloudy
4:37 PM 79.0 °F - 63.0 °F 58% 29.99 in 10.0 mi South 9.2 mph - N/A Thunderstorm Thunderstorm
4:53 PM 79.0 °F - 63.0 °F 58% 29.98 in 10.0 mi SSW 5.8 mph - N/A Thunderstorm Thunderstorm
5:06 PM 77.0 °F - 64.9 °F 66% 29.99 in 1.5 mi West 6.9 mph - 0.00 in Rain , Thunderstorm Heavy Thunderstorms and Rain
5:16 PM 72.0 °F - 66.9 °F 84% 30.01 in 1.0 mi WNW 10.4 mph - 0.14 in Rain , Thunderstorm Heavy Thunderstorms and Rain
5:24 PM 71.1 °F - 68.0 °F 90% 30.02 in 2.5 mi WSW 6.9 mph - 0.33 in Rain , Thunderstorm Heavy Thunderstorms and Rain
5:29 PM 71.1 °F - 68.0 °F 90% 30.01 in 7.0 mi West 4.6 mph - 0.39 in Rain , Thunderstorm Thunderstorms and Rain
5:39 PM 72.0 °F - 68.0 °F 87% 30.00 in 7.0 mi Calm Calm - 0.41 in Rain , Thunderstorm Light Rain
5:53 PM 72.0 °F - 68.0 °F 87% 29.99 in 10.0 mi Calm Calm - 0.43 in Rain Light Rain
6:20 PM 72.0 °F - 68.0 °F 87% 30.00 in 10.0 mi Calm Calm - 0.00 in   Mostly Cloudy
6:53 PM 72.0 °F - 68.0 °F 87% 29.98 in 10.0 mi Calm Calm - 0.00 in   Mostly Cloudy
7:53 PM 71.1 °F - 68.0 °F 90% 29.97 in 10.0 mi Calm Calm - N/A   Mostly Cloudy
8:53 PM 70.0 °F - 68.0 °F 93% 29.97 in 10.0 mi Calm Calm - N/A   Mostly Cloudy
9:53 PM 69.1 °F - 66.9 °F 93% 29.98 in 10.0 mi NNW 4.6 mph - N/A   Mostly Cloudy
10:53 PM 68.0 °F - 66.0 °F 93% 29.97 in 10.0 mi East 3.5 mph - N/A   Mostly Cloudy
11:53 PM 66.0 °F - 64.9 °F 96% 29.97 in 10.0 mi Calm Calm - N/A Fog Patches of Fog